Home > Weather > Wroclaw > Past weeks

Flag for Poland Weather for the Past 2 Weeks in Wroclaw, Poland

Now
39 °F

Light rain. Passing clouds.


Feels Like: 37 °F
Forecast: 36 / 50 °F
Wind: 3 mph from South

Location: Wroclaw Ii

Current Time: Feb 6, 2016 at 1:48:24 AM

Latest Report: Feb 6, 2016 at 1:00 AM


Visibility: N/A

Pressure: 30.18 "Hg

Humidity: 87%

Dew point: 36 °F

Location of WroclawLocation

Historic Weather in Wroclaw — Graph

°F

Wroclaw Temperature Yesterday

Maximum temperature yesterday: 43 °F (at 3:00 PM)
Minimum temperature yesterday: 34 °F (at 12:00 AM)
Average temperature yesterday: 38 °F

High & Low Weather Summary for the Past Weeks

 TemperatureHumidityPressure
High59 °F (Feb 2, 2:30 PM)100% (Jan 31, 4:30 AM)30.57 "Hg (Jan 31, 4:30 AM)
Low7 °F (Jan 22, 8:00 AM)41% (Jan 30, 4:30 PM)29.65 "Hg (Jan 30, 11:00 PM)
Average41 °F75%30.12 "Hg
* Reported Midnight between Jan 21 and Jan 22 — Midnight between Feb 5 and Feb 6, Wroclaw, Weather by CustomWeather, © 2016

Note: Actual official high and low records may vary slightly from our data, if they occured in-between our weather recording intervals... More about our weather records

Advertising

Wroclaw Weather History for the Previous 24 Hours

 ConditionsComfort  
Time TempWeatherWind HumidityBarometerVisibility
12:00 AM
Sat, Feb 6
39 °FLight rain. Passing clouds.3 mph87%30.21 "HgN/A
11:30 PM
Fri, Feb 5
39 °FLight rain. Passing clouds.3 mph87%30.21 "HgN/A
11:00 PM39 °FLight rain. Passing clouds.3 mph87%30.21 "HgN/A
10:30 PM37 °FLight rain. Passing clouds.3 mph87%30.21 "HgN/A
10:00 PM37 °FLight rain. Passing clouds.2 mph81%30.21 "HgN/A
9:30 PM37 °FLight rain. Passing clouds.2 mph81%30.24 "HgN/A
9:00 PM39 °FPartly cloudy.3 mph70%30.21 "HgN/A
8:30 PM37 °FPassing clouds.5 mph75%30.21 "HgN/A
8:00 PM37 °FPassing clouds.5 mph70%30.24 "HgN/A
7:30 PM37 °FClear.5 mph75%30.24 "Hg10 mi
7:00 PM37 °FPassing clouds.5 mph70%30.24 "HgN/A
6:30 PM37 °FPassing clouds.3 mph70%30.24 "HgN/A
6:00 PM37 °FPassing clouds.5 mph70%30.24 "HgN/A
5:30 PM37 °FClear.3 mph70%30.24 "Hg10 mi
5:00 PM39 °FClear.3 mph65%30.24 "Hg10 mi
4:30 PM39 °FSunny.3 mph61%30.24 "Hg10 mi
4:00 PM41 °FSunny.5 mph57%30.27 "Hg10 mi
3:30 PM43 °FSunny.7 mph53%30.27 "Hg10 mi
3:00 PM43 °FSunny.12 mph53%30.27 "Hg10 mi
2:30 PM41 °FScattered clouds.10 mph57%30.27 "HgN/A
2:00 PM41 °FScattered clouds.8 mph61%30.27 "HgN/A
1:30 PM41 °FScattered clouds.7 mph66%30.27 "HgN/A
1:00 PM41 °FPassing clouds.10 mph66%30.27 "HgN/A
12:30 PM41 °FScattered clouds.10 mph66%30.27 "HgN/A
12:00 PM41 °FPartly sunny.12 mph70%30.30 "HgN/A
11:30 AM39 °FPartly sunny.10 mph75%30.30 "HgN/A
11:00 AM39 °FPartly sunny.16 mph75%30.30 "HgN/A
10:30 AM37 °FPartly sunny.13 mph81%30.30 "HgN/A
10:00 AM37 °FPartly sunny.9 mph81%30.30 "HgN/A
9:30 AM36 °FPartly sunny.7 mph87%30.27 "HgN/A
9:00 AM36 °FPartly sunny.9 mph87%30.27 "HgN/A
8:30 AM36 °FPartly sunny.9 mph87%30.27 "HgN/A
8:00 AM36 °FPartly sunny.8 mph87%30.24 "HgN/A
7:30 AM36 °FPartly sunny.7 mph87%30.24 "HgN/A
7:00 AM36 °FPassing clouds.7 mph87%30.21 "HgN/A
6:30 AM36 °FPassing clouds.8 mph87%30.21 "HgN/A
6:00 AM36 °FPartly cloudy.8 mph87%30.21 "HgN/A
5:00 AM36 °FPartly cloudy.10 mph93%30.18 "Hg5 mi
4:00 AM36 °FLight snow. Passing clouds.8 mph87%30.15 "Hg5 mi
3:30 AM36 °FPassing clouds.8 mph87%30.15 "HgN/A
3:00 AM36 °FPassing clouds.9 mph87%30.12 "HgN/A
2:30 AM36 °FPassing clouds.12 mph87%30.12 "HgN/A
2:00 AM36 °FPassing clouds.12 mph93%30.12 "HgN/A
1:00 AM36 °FPassing clouds.12 mph93%30.09 "HgN/A
Weather by CustomWeather, © 2016

See weather overviewHow to use our weather pages